Location: College Park
(38.9810°N, 76.9370°W)
Time: 13:35:36
(UTC-05:00)

Vanguard 2 Rocket - Visible Passes

Search period start: 22 November 2017 00:00
Search period end: 02 December 2017 00:00
Orbit: 556 x 3326 km, 32.9° (Epoch: 21 November)

Date Brightness Start Highest point End Pass type
(mag) Time Alt. Az. Time Alt. Az. Time Alt. Az.
22 Nov 9.2 02:32:36 43° ESE 02:32:36 43° ESE 02:38:46 10° E visible
22 Nov 8.3 04:38:24 38° WSW 04:43:30 62° S 04:51:12 10° ESE visible
23 Nov 10.0 01:36:28 22° E 01:36:28 22° E 01:39:23 10° E visible
23 Nov 8.5 03:42:16 64° SSW 03:43:19 66° S 03:52:26 10° ESE visible
23 Nov 8.4 05:48:05 14° W 05:57:31 46° SSW 06:04:00 10° SE visible
24 Nov 9.0 02:46:07 52° ESE 02:46:07 52° ESE 02:53:24 10° E visible
24 Nov 8.4 04:51:56 33° WSW 04:57:53 57° SSW 05:05:38 10° ESE visible
24 Nov 10.9 20:57:53 10° S 20:58:01 10° SSE 20:58:01 10° SSE visible
25 Nov 9.8 01:49:58 28° E 01:49:58 28° E 01:54:04 10° E visible
25 Nov 8.5 03:55:47 59° SW 03:57:46 65° S 04:06:57 10° ESE visible
25 Nov 8.7 06:01:35 11° W 06:11:34 36° SSW 06:18:00 10° SSE visible
25 Nov 10.9 22:06:51 10° SSW 22:07:39 12° SSW 22:07:39 12° SSW visible
26 Nov 10.5 00:53:49 12° E 00:53:49 12° E 00:54:24 10° E visible
26 Nov 8.9 02:59:37 60° SE 02:59:37 60° SE 03:07:58 10° ESE visible
26 Nov 8.6 05:05:26 28° W 05:12:06 49° SSW 05:19:54 10° SE visible
26 Nov 10.7 21:07:59 10° S 21:11:32 16° S 21:11:32 16° S visible
26 Nov11.023:57:40E23:57:40E23:17:21SWvisible
27 Nov 9.6 02:03:28 35° ESE 02:03:28 35° ESE 02:08:40 10° E visible
27 Nov 8.6 04:09:17 52° WSW 04:12:07 60° SSW 04:21:22 10° ESE visible
27 Nov 9.1 06:15:57 10° W 06:25:21 27° SW 06:31:32 10° SSE visible
27 Nov 10.6 20:10:41 10° S 20:15:27 15° SSE 20:15:27 15° SSE visible
27 Nov 10.8 22:19:19 10° SSW 22:21:16 14° SSW 22:21:16 14° SSW visible
28 Nov 10.4 01:07:19 16° E 01:07:19 16° E 01:09:02 10° E visible
28 Nov 8.8 03:13:08 64° SSE 03:13:08 64° SSE 03:22:28 10° ESE visible
28 Nov 8.9 05:18:56 23° W 05:26:05 40° SSW 05:33:50 10° SSE visible
28 Nov 10.7 19:18:51 10° SE 19:19:24 10° SE 19:19:24 10° SE visible
28 Nov 10.5 21:19:46 10° SSW 21:25:13 22° S 21:25:13 22° S visible
29 Nov10.900:11:11E00:11:11E23:31:02WSWvisible
29 Nov 9.5 02:17:00 41° ESE 02:17:00 41° ESE 02:23:13 10° ESE visible
29 Nov 8.8 04:22:49 44° WSW 04:26:16 52° SSW 04:35:34 10° SE visible
29 Nov 9.5 06:31:37 10° W 06:38:54 18° SW 06:44:15 10° S visible
29 Nov 10.4 20:21:12 10° S 20:29:11 23° SSE 20:29:11 23° SSE visible
29 Nov 10.8 22:32:29 10° SW 22:35:00 16° SW 22:35:00 16° SW visible
30 Nov 10.3 01:20:52 21° E 01:20:52 21° E 01:23:36 10° E visible
30 Nov 8.9 03:26:41 61° S 03:26:41 61° S 03:36:50 10° ESE visible
30 Nov 9.2 05:32:30 19° W 05:39:47 30° SW 05:47:20 10° SSE visible
30 Nov 10.4 19:24:11 10° SSE 19:33:11 18° SE 19:33:11 18° SE visible
30 Nov 10.4 21:32:27 10° SSW 21:38:59 27° SSW 21:38:59 27° SSW visible
01 Dec10.900:24:46E00:24:46E23:44:49WSWvisible
01 Dec 9.4 02:30:35 45° SE 02:30:35 45° SE 02:37:41 10° ESE visible
01 Dec 9.1 04:36:24 37° WSW 04:40:11 42° SSW 04:49:28 10° SE visible
01 Dec 10.1 20:33:15 10° SSW 20:43:00 32° S 20:43:00 32° S visible
01 Dec 10.7 22:46:08 10° SW 22:48:49 17° SW 22:48:49 17° SW visible
